Home   Weather   Fort Nelson   Past weeks

Flag for Canada Past Weather in Fort Nelson, British Columbia, Canada — Yesterday and Last 2 Weeks

Now
12 °F

Partly sunny.


Feels Like: 12 °F
Forecast: 6 / 22 °F
Wind: No wind

Location: Fort Nelson

Current Time: Dec 2, 2016 at 5:28:20 pm

Latest Report: Dec 2, 2016 at 4:00 pm


Visibility: 20 mi

Pressure: 29.43 "Hg

Humidity: 85%

Dew Point: 9 °F

Location of Fort NelsonLocation

Past Weather in Fort Nelson — Graph

°F

Fort Nelson Temperature Yesterday

Maximum temperature yesterday: 14 °F (at 12:00 am)
Minimum temperature yesterday: 1 °F (at 9:00 pm)
Average temperature yesterday: 8 °F

High & Low Weather Summary for the Past Weeks

 TemperatureHumidityPressure
High18 °F (Nov 17, 4:00 pm)93% (Nov 30, 5:00 pm)30.59 "Hg (Nov 30, 5:00 pm)
Low-13 °F (Nov 22, 3:00 am)73% (Nov 17, 4:00 pm)29.43 "Hg (Dec 2, 4:00 pm)
Average2 °F84%29.95 "Hg
* Reported Nov 17 4:00 pm — Dec 2 4:00 pm, Fort Nelson, Weather by CustomWeather, © 2016

Note: Actual official high and low records may vary slightly from our data, if they occured in-between our weather recording intervals... More about our weather records

Advertising

Fort Nelson Weather History for the Previous 24 Hours

Scroll right to see more
 ConditionsComfort  
Time TempWeatherWind HumidityBarometerVisibility
4:00 pm
Fri, Dec 2
12 °FPartly sunny.No wind85%29.43 "Hg20 mi
3:00 pm10 °FPartly sunny.5 mph85%29.44 "Hg20 mi
2:00 pm10 °FPartly sunny.2 mph85%29.45 "Hg20 mi
1:00 pm9 °FPartly sunny.2 mph92%29.46 "Hg20 mi
12:00 pm7 °FBroken clouds.No wind85%29.49 "Hg20 mi
11:00 am7 °FBroken clouds.No wind85%29.51 "Hg15 mi
10:00 am7 °FPartly sunny.2 mph85%29.54 "Hg15 mi
9:47 am5 °FPartly sunny.3 mph92%29.56 "Hg10 mi
9:00 am5 °FLight snow. Passing clouds.No wind85%29.57 "Hg10 mi
8:00 am3 °FSnow. Ice fog.3 mph85%29.61 "Hg1 mi
7:00 am1 °FPassing clouds.5 mph85%29.64 "Hg15 mi
6:00 am0 °FOvercast.No wind84%29.67 "Hg15 mi
5:00 am0 °FIce fog.3 mph92%29.69 "Hg6 mi
4:00 am-2 °FPassing clouds.2 mph77%29.75 "Hg15 mi
3:00 am-2 °FPassing clouds.No wind77%29.79 "Hg15 mi
2:00 am-2 °FPassing clouds.No wind84%29.83 "Hg20 mi
1:00 am-2 °FPassing clouds.3 mph84%29.85 "Hg15 mi
12:00 am0 °FPassing clouds.2 mph84%29.88 "Hg15 mi
11:00 pm
Thu, Dec 1
1 °FPassing clouds.2 mph85%29.89 "Hg15 mi
10:00 pm3 °FPassing clouds.2 mph85%29.91 "Hg15 mi
9:00 pm1 °FPassing clouds.No wind85%29.93 "Hg15 mi
8:00 pm3 °FPassing clouds.2 mph92%29.94 "Hg15 mi
7:00 pm7 °FPassing clouds.2 mph85%29.96 "Hg15 mi
6:00 pm7 °FPassing clouds.2 mph85%29.97 "Hg15 mi
5:00 pm10 °FPassing clouds.No wind92%29.98 "Hg15 mi
Weather by CustomWeather, © 2016

See weather overviewHow to use our weather pages